sat.trackr.live / text

‹ back to catalog

STARLINK-2400

NORAD 47817 · 2021-018AG

PAYLOAD ACTIVE UNKNOWN

§ Identity

Operator
Country
US
Launch date
2021-03-11
Launch site
AFETR
Launch vehicle
Mass (kg)
RCS (m²)

Purposes: comms

External: N2YO · Heavens-Above · Gunter

§ Orbital elements

Epoch: 2026-05-24T23:44:30.054336Z

Period
94.01 min
Inclination
53.1571°
Eccentricity
0.0001125
Mean motion
15.31699922 rev/d
Perigee alt
470.0 km
Apogee alt
471.5 km
Semi-major
6,848.9 km
B*
8.7123e-5
RAAN
248.2563°
Arg perigee
87.7635°
Mean anomaly
272.3495°
Rev number
28,840

§ Raw data

STARLINK-24001 47817U 21018AG  26144.98923674  .00002339  00000+0  87123-4 0  99952 47817  53.1571 248.2563 0001125  87.7635 272.3495 15.31699922288407

JSON: /api/v1/satellites/47817 · /tle

For live sub-satellite position, see the globe view (requires WebGL).

§ Visibility from observer

Set your observer location to see the next 7 days of passes ≥ 10°. The values pass through the URL so the page stays shareable.

No JS? Fill the form by hand. The geolocation button needs JavaScript.